Wind_Speed
16 15 13 10 9 13 22 15 4 10 2 5 11 12 15 14 7 9 14 5 6 2 9 8 10 12 13 14 15 16 16 14 14 13 9 9 9 9 8 8 6 6 5 8 7 10 9 9 8
14 12 10 9 18 22 12 11 10 13 17 10 9 7 12 6 1 8 10 6 7 4 7 9 10 12 14 15 13 15 15 13 13 12 9 7 7 8 7 7 6 5 5 9 7 7 9 9 9
10 8 10 11 19 26 6 2 5 10 11 3 3 8 12 5 3 5 7 9 8 11 10 10 10 12 13 14 14 14 15 13 12 12 8 5 5 6 6 5 6 6 6 7 9 6 7 9 9
8 6 12 14 23 18 6 5 7 7 6 5 4 3 3 6 5 5 6 14 16 13 16 9 10 12 13 13 13 13 14 14 12 11 8 5 4 4 4 4 5 6 7 7 7 6 5 7 8
6 6 15 19 23 24 6 8 2 4 5 4 5 5 6 8 3 6 7 15 17 15 15 16 12 11 12 14 13 12 10 12 12 11 9 7 4 4 4 4 4 5 6 5 6 5 4 5 7
10 11 17 21 24 13 9 8 5 5 4 3 2 2 1 7 1 6 6 12 15 16 16 15 17 14 13 12 13 12 10 9 10 10 9 8 6 5 5 4 4 4 4 5 5 4 3 4 4
13 13 21 24 21 2 7 7 4 4 0 2 4 3 6 9 3 5 6 7 13 15 15 15 15 14 15 16 15 13 12 10 9 9 8 8 7 6 5 5 4 4 5 4 4 4 3 2 2
13 15 21 26 27 7 10 7 9 3 4 8 10 4 12 13 6 7 8 8 12 13 15 16 14 14 15 15 16 15 13 12 11 9 8 8 7 7 5 4 5 5 5 5 5 5 4 1 1
10 13 16 18 19 13 7 6 2 10 8 9 15 11 14 11 10 10 10 11 12 13 15 16 17 16 14 13 13 14 14 14 12 10 8 8 7 6 5 4 4 5 5 5 6 6 5 4 2
11 13 18 8 1 7 7 7 10 2 12 14 17 14 6 10 8 9 10 11 13 11 13 15 15 15 15 13 13 12 13 12 12 11 10 8 7 6 6 5 4 4 5 6 7 7 6 5 4
12 18 8 11 8 11 2 10 13 9 13 22 20 15 20 21 13 17 13 13 13 14 14 14 16 15 16 15 14 14 14 13 13 12 11 9 7 7 6 6 5 5 6 7 8 9 7 6 6
16 12 11 8 11 1 2 2 8 21 13 18 19 20 20 22 21 20 20 16 16 17 18 16 17 16 16 15 15 15 15 13 13 14 11 8 7 6 6 6 6 6 6 8 10 11 9 8 7
13 13 16 14 17 9 8 5 9 19 22 17 18 20 20 17 21 22 26 26 25 22 23 21 18 18 17 17 18 17 16 15 15 14 11 9 9 7 8 7 7 8 7 10 11 10 11 8 8
8 11 10 8 6 16 11 11 14 17 19 23 21 19 19 20 21 26 27 30 25 29 28 26 20 21 21 20 19 17 18 17 16 14 13 12 11 10 9 7 7 9 9 11 12 11 11 10 9
9 12 11 10 8 7 12 13 14 21 18 21 24 21 19 21 23 27 29 27 30 31 27 29 24 25 22 21 21 19 19 17 16 16 14 14 13 11 10 9 8 10 12 11 12 11 13 12 11
10 14 18 16 11 13 13 12 19 19 10 19 22 25 21 23 25 28 29 28 31 32 31 37 30 31 31 22 23 22 19 17 18 18 15 16 16 12 12 11 11 12 14 12 12 12 13 13 12
14 18 19 14 12 9 10 8 15 16 12 5 17 21 24 25 28 31 31 30 30 31 31 33 29 31 33 31 28 24 24 22 19 19 17 17 17 15 15 13 12 13 14 14 14 13 14 14 15
11 13 17 17 9 8 10 14 10 15 11 8 4 13 21 24 28 30 34 34 32 31 31 38 33 32 28 19 24 25 28 26 22 22 20 18 17 17 16 15 14 11 14 16 14 15 15 16 17
9 11 8 9 4 5 10 12 14 12 15 8 6 5 16 23 28 30 31 34 36 34 35 37 33 34 31 31 36 26 29 26 25 21 22 20 19 18 17 16 13 12 15 16 15 15 16 18 20
9 10 11 14 8 8 9 12 18 17 11 15 12 7 13 23 26 29 32 34 35 35 38 38 37 35 31 32 27 22 25 21 23 23 19 19 16 20 19 19 15 13 16 16 15 15 17 18 21
8 8 9 8 11 11 13 21 18 17 17 19 19 20 20 22 26 29 30 34 36 36 38 40 41 35 35 34 32 30 31 36 17 21 23 18 26 24 23 20 18 16 18 18 18 17 19 20 22
8 2 7 11 15 20 16 18 18 27 20 12 10 18 19 20 26 31 31 32 36 38 38 38 39 39 39 37 37 37 32 32 24 24 18 20 21 23 29 22 21 18 19 20 19 20 21 24 24
6 11 12 15 18 19 21 20 22 11 18 16 13 6 12 17 23 27 29 32 35 37 39 39 39 39 38 39 40 42 38 36 30 20 24 22 22 19 25 28 23 22 20 22 22 22 22 23 25
11 14 17 19 18 17 26 24 29 17 13 17 12 16 23 24 25 27 30 33 35 33 36 38 41 40 38 39 41 41 40 41 37 31 30 26 24 21 19 21 24 24 24 21 24 23 23 23 25
9 12 10 8 11 13 21 18 2 10 16 20 20 17 20 28 32 34 33 35 39 40 37 36 38 39 42 39 41 42 43 42 38 37 34 25 23 27 23 21 25 26 28 26 25 25 27 26 28
9 6 7 6 8 13 11 7 8 11 12 16 18 20 21 26 31 32 31 34 37 40 42 42 39 37 38 41 41 43 43 44 42 37 38 33 17 32 18 25 25 30 31 33 32 33 30 29 29
2 4 6 9 16 18 16 9 3 12 10 15 17 19 20 27 30 35 35 35 37 36 39 44 45 42 39 38 39 42 43 43 46 44 37 37 37 25 26 29 28 32 38 33 34 37 40 36 31
1 6 4 4 5 10 11 17 5 13 18 20 24 28 31 34 37 40 45 49 51 48 44 42 43 46 43 40 38 37 43 41 40 43 36 32 29 29 29 29 30 34 35 37 33 35 39 37 37
1 4 5 9 10 5 7 3 8 10 11 14 19 20 24 32 34 38 44 38 40 45 50 49 47 45 44 43 41 39 36 42 41 38 41 34 34 32 29 32 29 32 23 25 24 25 25 31 41
7 7 7 6 5 11 16 21 13 7 14 15 19 22 23 25 30 35 30 33 29 31 35 42 50 49 46 45 42 41 39 37 40 39 34 32 32 30 30 31 26 35 29 29 33 25 29 16 28
Wind_Direction
268 269 269 259 261 245 256 258 183 157 219 274 35 78 104 128 145 140 147 172 69 319 198 192 189 176 168 165 150 146 142 142 148 146 139 116 110 105 107 103 101 103 104 105 105 89 79 56 60
264 264 259 252 248 261 262 38 50 2 213 11 34 50 112 49 104 133 155 132 132 100 213 187 191 183 172 166 163 152 147 145 155 149 143 118 108 108 102 103 108 107 110 114 103 86 85 66 54
257 254 249 243 252 250 217 49 49 61 51 156 311 43 59 67 34 191 191 169 167 152 183 190 180 177 175 168 162 160 158 155 160 157 160 133 115 110 104 103 104 106 113 123 113 87 83 76 66
236 233 255 246 251 254 162 172 125 121 140 114 100 340 13 48 22 138 159 163 185 178 177 171 176 176 172 168 165 167 166 166 166 167 174 180 152 125 119 113 103 105 124 130 113 96 72 71 77
225 214 247 253 256 258 214 122 137 154 126 73 15 126 78 318 51 143 144 154 176 179 179 182 172 173 174 166 167 166 172 172 174 181 181 194 188 174 142 128 126 120 128 135 121 102 81 64 69
235 246 262 259 246 245 155 161 165 181 165 115 77 151 262 271 340 183 124 154 169 175 184 179 177 170 173 181 174 173 175 178 183 187 194 202 200 207 177 152 146 137 139 148 136 119 100 74 65
246 251 250 258 256 159 223 177 175 180 175 44 223 288 235 237 231 177 155 161 154 175 187 189 181 177 186 181 177 178 177 182 187 190 195 209 215 214 208 168 163 159 148 167 153 136 110 85 67
248 259 269 269 269 126 165 193 200 133 228 239 205 272 170 186 196 191 190 179 165 179 194 192 191 194 203 190 180 181 176 182 185 189 192 198 210 228 223 203 178 174 164 178 176 170 144 134 355
235 252 258 262 303 148 147 163 184 180 235 174 221 236 308 87 222 201 210 198 185 187 191 202 197 202 199 204 197 182 185 185 186 189 200 201 209 226 238 236 211 185 179 184 196 192 170 165 227
237 240 247 269 17 101 132 177 141 90 220 224 236 226 140 136 261 211 215 232 201 197 201 201 203 203 205 206 203 194 195 195 188 188 201 205 211 222 238 240 234 221 198 194 208 210 189 186 213
240 238 287 276 231 132 136 231 194 174 211 228 244 242 197 199 189 235 248 232 219 206 212 216 212 208 205 204 213 204 202 200 194 199 208 207 206 211 235 244 241 228 219 210 211 217 215 208 213
243 248 249 271 255 190 159 262 231 236 220 227 239 244 246 221 206 208 210 237 228 217 220 219 226 216 215 208 213 215 210 203 199 208 213 212 216 220 228 240 248 244 228 224 219 223 223 217 227
243 249 248 259 255 247 223 216 227 248 237 237 240 248 246 255 233 219 214 220 219 220 222 225 231 229 225 217 215 217 215 209 206 206 210 223 232 220 229 230 244 253 232 228 231 229 232 229 230
249 229 250 244 249 249 222 247 244 238 245 238 240 248 244 244 234 236 227 221 225 220 215 215 218 236 232 224 221 219 221 214 214 212 208 213 230 239 245 237 247 258 246 238 231 227 236 236 239
235 230 237 245 229 249 206 226 220 235 242 247 239 242 240 233 234 234 223 232 229 225 221 218 222 226 233 231 228 223 226 225 216 221 211 217 225 230 250 259 251 262 263 248 238 228 232 237 238
237 232 239 244 221 238 230 230 211 239 227 251 250 243 240 235 230 232 237 236 231 228 225 225 231 220 222 235 233 224 227 230 223 221 221 223 224 224 234 247 258 259 262 252 248 233 238 241 241
238 238 231 219 195 201 204 198 232 240 208 217 260 252 250 238 237 231 231 234 239 237 230 233 221 224 244 233 224 223 222 228 230 229 219 229 230 224 234 234 251 255 262 255 242 242 243 247 250
289 251 245 224 191 192 222 235 213 247 238 184 193 264 250 247 240 239 235 233 235 230 228 233 232 233 238 231 246 213 229 229 221 231 230 225 235 238 240 236 234 249 263 259 252 246 248 252 251
309 298 296 100 133 198 222 235 241 217 252 205 189 202 256 250 247 239 240 238 235 233 233 236 238 237 239 248 265 275 203 222 232 228 235 237 239 236 239 244 239 252 255 261 261 261 258 257 260
302 291 271 259 291 336 273 253 246 243 214 192 190 223 247 254 253 247 242 243 240 239 234 236 236 236 234 247 253 236 256 201 239 238 230 234 259 255 243 243 240 243 255 261 264 263 264 264 264
292 276 306 296 295 294 287 269 247 237 212 215 241 244 252 260 263 260 252 248 248 244 243 240 238 236 235 233 237 236 231 231 235 229 219 237 266 254 241 245 244 242 248 257 260 262 264 260 260
300 332 312 299 297 288 282 287 246 227 206 187 203 241 249 257 265 267 264 259 254 250 248 247 247 241 235 234 236 238 237 251 243 257 243 239 237 247 248 244 248 246 249 257 260 261 265 264 261
298 291 292 280 275 281 269 266 257 206 200 193 207 232 265 272 270 272 272 267 260 257 254 252 250 250 243 238 235 240 245 238 238 226 230 235 238 232 256 246 240 245 248 259 263 259 263 264 265
301 309 289 267 261 261 263 255 259 261 168 181 221 245 261 280 287 283 280 276 270 263 257 256 253 252 249 243 240 238 240 248 237 234 232 240 243 248 255 263 250 244 249 248 265 269 261 262 259
318 327 295 251 219 241 267 248 97 217 216 222 249 270 277 281 280 282 282 276 273 271 265 259 256 254 252 248 245 241 242 241 243 236 243 233 246 251 249 244 257 256 256 257 253 263 264 254 256
315 318 310 312 322 318 300 246 148 251 246 256 267 282 291 290 287 281 278 276 272 269 268 266 261 257 254 250 247 246 241 240 242 249 240 254 243 271 254 248 257 246 266 253 255 259 261 262 258
338 339 298 302 282 270 263 259 191 249 270 310 302 298 291 284 283 281 278 275 275 272 268 266 263 260 257 253 248 245 247 240 242 241 247 249 259 249 253 256 255 256 249 257 258 263 255 255 252
293 320 357 277 286 295 288 311 236 274 305 307 297 295 295 293 290 286 278 280 281 275 266 263 263 261 260 256 249 245 243 245 240 242 245 243 238 238 247 246 257 254 258 248 250 260 262 257 247
40 283 293 285 271 292 304 316 326 335 320 310 315 310 303 299 297 289 287 283 277 274 267 263 259 257 257 258 254 246 243 239 235 237 238 244 241 245 253 255 249 262 244 255 241 275 283 263 249
257 271 273 274 297 293 298 290 266 301 314 314 306 310 305 300 294 293 301 295 289 281 272 264 260 258 254 253 253 250 242 239 232 231 233 235 236 246 252 259 258 285 271 304 265 270 276 259 267
Height
3157 3157 3158 3158 3162 3153 3146 3145 3141 3141 3147 3149 3141 3138 3146 3152 3154 3156 3153 3157 3160 3164 3166 3168 3170 3172 3174 3175 3175 3176 3179 3180 3183 3184 3186 3185 3186 3186 3187 3188 3189 3189 3190 3190 3191 3190 3190 3190 3190
3155 3156 3157 3156 3157 3149 3149 3139 3142 3144 3145 3147 3154 3147 3143 3155 3155 3156 3153 3156 3158 3162 3167 3169 3172 3173 3174 3176 3177 3178 3180 3181 3184 3185 3186 3187 3187 3187 3188 3189 3190 3190 3191 3190 3192 3192 3191 3191 3192
3154 3155 3156 3155 3151 3148 3146 3147 3145 3147 3148 3151 3152 3153 3151 3155 3156 3156 3154 3154 3158 3160 3168 3171 3171 3174 3175 3177 3178 3179 3180 3182 3184 3185 3187 3188 3188 3189 3189 3189 3191 3191 3192 3192 3192 3194 3193 3191 3192
3152 3154 3155 3151 3146 3146 3145 3147 3148 3146 3150 3151 3150 3152 3153 3156 3156 3156 3155 3154 3158 3162 3165 3171 3173 3174 3176 3178 3179 3180 3181 3182 3184 3185 3187 3188 3189 3190 3190 3191 3191 3192 3193 3193 3194 3194 3195 3194 3193
3151 3152 3153 3149 3145 3142 3148 3146 3149 3150 3149 3150 3150 3148 3153 3153 3156 3155 3153 3153 3157 3161 3166 3168 3172 3175 3177 3177 3179 3181 3182 3183 3184 3186 3187 3189 3190 3190 3190 3192 3192 3193 3193 3194 3194 3195 3196 3196 3195
3149 3153 3151 3147 3141 3142 3141 3144 3149 3151 3150 3150 3152 3148 3151 3154 3155 3158 3155 3153 3156 3162 3166 3168 3170 3171 3175 3178 3179 3180 3182 3183 3185 3185 3187 3188 3190 3191 3191 3191 3193 3193 3194 3195 3195 3196 3196 3197 3197
3147 3150 3148 3143 3143 3143 3142 3144 3148 3150 3150 3149 3153 3153 3146 3149 3154 3157 3157 3157 3158 3161 3166 3168 3170 3172 3174 3175 3177 3179 3181 3183 3185 3186 3187 3188 3190 3191 3192 3191 3193 3194 3194 3196 3196 3196 3197 3198 3198
3148 3149 3146 3141 3141 3140 3138 3144 3146 3148 3149 3148 3148 3144 3142 3138 3147 3153 3157 3158 3160 3161 3166 3168 3169 3171 3174 3175 3176 3178 3179 3181 3183 3185 3186 3187 3189 3191 3192 3192 3192 3193 3194 3196 3197 3197 3196 3199 3200
3145 3147 3144 3143 3141 3136 3138 3143 3144 3146 3145 3144 3144 3146 3144 3132 3147 3151 3155 3159 3161 3161 3164 3167 3169 3171 3173 3175 3176 3176 3179 3181 3181 3183 3185 3186 3187 3189 3192 3192 3192 3193 3194 3195 3197 3197 3197 3197 3200
3143 3143 3142 3141 3139 3138 3141 3138 3141 3145 3141 3143 3145 3148 3149 3141 3146 3151 3154 3158 3160 3161 3163 3166 3168 3170 3171 3173 3174 3176 3178 3180 3181 3182 3183 3185 3186 3189 3190 3192 3192 3193 3193 3194 3197 3197 3197 3197 3199
3141 3139 3141 3137 3136 3137 3140 3136 3138 3137 3141 3142 3144 3146 3148 3154 3153 3153 3153 3155 3158 3160 3163 3165 3166 3167 3169 3171 3173 3174 3175 3178 3179 3180 3181 3183 3185 3187 3189 3191 3191 3192 3193 3194 3195 3197 3197 3197 3198
3138 3138 3137 3135 3133 3135 3138 3132 3136 3139 3140 3141 3141 3143 3146 3148 3149 3148 3153 3154 3157 3159 3162 3164 3164 3166 3167 3168 3170 3172 3173 3174 3177 3178 3179 3180 3182 3185 3187 3189 3191 3191 3193 3193 3193 3195 3197 3197 3198
3135 3135 3132 3132 3131 3133 3135 3132 3135 3137 3139 3139 3140 3141 3142 3142 3144 3146 3148 3147 3149 3156 3160 3162 3164 3165 3166 3168 3168 3170 3171 3172 3174 3175 3176 3179 3180 3183 3184 3187 3189 3190 3191 3191 3192 3194 3196 3196 3197
3130 3131 3129 3129 3130 3130 3134 3133 3136 3135 3135 3136 3138 3139 3140 3141 3143 3145 3145 3148 3149 3150 3152 3155 3160 3163 3164 3164 3165 3167 3168 3170 3171 3173 3174 3176 3179 3181 3182 3184 3186 3188 3189 3190 3190 3193 3195 3195 3197
3127 3129 3127 3128 3129 3130 3132 3133 3133 3131 3133 3133 3134 3136 3138 3139 3140 3142 3143 3146 3147 3147 3147 3155 3156 3157 3159 3162 3163 3163 3166 3168 3169 3170 3172 3174 3176 3178 3179 3181 3183 3186 3187 3188 3189 3190 3192 3194 3195
3124 3126 3126 3126 3125 3127 3130 3133 3125 3129 3131 3129 3130 3132 3134 3135 3136 3137 3139 3142 3142 3144 3146 3144 3150 3151 3147 3158 3159 3160 3162 3166 3168 3168 3170 3171 3172 3175 3177 3179 3180 3183 3185 3186 3187 3188 3190 3192 3193
3122 3121 3122 3122 3122 3125 3126 3128 3123 3126 3128 3128 3126 3128 3129 3130 3131 3133 3134 3136 3138 3140 3143 3143 3145 3147 3146 3150 3145 3154 3156 3161 3165 3165 3167 3168 3170 3172 3175 3176 3178 3181 3182 3184 3184 3186 3187 3190 3191
3116 3117 3118 3118 3118 3120 3124 3126 3120 3124 3125 3128 3127 3124 3124 3124 3127 3129 3130 3131 3134 3137 3138 3139 3142 3142 3142 3143 3140 3141 3152 3156 3161 3163 3164 3166 3168 3171 3172 3173 3176 3178 3180 3182 3182 3183 3185 3187 3189
3116 3116 3115 3116 3114 3118 3121 3125 3120 3119 3123 3125 3126 3124 3120 3119 3120 3123 3125 3126 3128 3130 3132 3134 3136 3138 3140 3141 3136 3126 3127 3150 3159 3161 3160 3162 3165 3168 3171 3171 3171 3175 3176 3180 3181 3181 3183 3185 3186
3116 3115 3115 3115 3113 3115 3118 3120 3123 3116 3120 3119 3120 3119 3116 3114 3114 3117 3119 3120 3122 3124 3126 3128 3130 3133 3137 3138 3139 3140 3141 3138 3151 3156 3156 3160 3163 3165 3168 3168 3168 3171 3173 3175 3177 3179 3180 3182 3183
3116 3115 3114 3114 3111 3114 3116 3114 3117 3115 3113 3113 3114 3113 3112 3110 3110 3110 3113 3115 3116 3119 3120 3122 3124 3128 3132 3136 3137 3140 3145 3133 3141 3143 3150 3157 3160 3161 3164 3165 3165 3167 3169 3171 3173 3176 3177 3179 3180
3117 3114 3115 3115 3116 3113 3114 3106 3111 3111 3108 3111 3109 3107 3106 3107 3105 3105 3107 3109 3110 3112 3114 3115 3116 3120 3124 3128 3132 3133 3137 3137 3139 3142 3147 3151 3154 3154 3158 3161 3162 3164 3166 3166 3169 3171 3173 3174 3176
3116 3113 3114 3114 3113 3112 3110 3110 3107 3108 3106 3108 3104 3102 3103 3104 3103 3102 3102 3102 3103 3104 3106 3108 3110 3110 3115 3118 3123 3126 3129 3133 3132 3138 3141 3144 3147 3149 3151 3156 3158 3159 3162 3163 3165 3167 3169 3170 3171
3113 3112 3110 3109 3109 3107 3102 3105 3100 3102 3103 3100 3099 3099 3101 3100 3100 3099 3098 3096 3095 3097 3098 3099 3101 3102 3105 3110 3113 3117 3121 3124 3129 3133 3137 3139 3141 3143 3145 3150 3152 3155 3156 3159 3160 3163 3164 3165 3167
3113 3111 3105 3099 3100 3094 3094 3094 3096 3095 3096 3096 3095 3095 3096 3096 3094 3093 3093 3092 3089 3088 3089 3091 3092 3094 3096 3099 3103 3108 3112 3116 3121 3127 3127 3130 3137 3140 3142 3141 3146 3148 3152 3154 3155 3156 3158 3159 3161
3112 3113 3111 3105 3096 3096 3094 3093 3095 3092 3092 3092 3092 3090 3089 3089 3088 3086 3085 3083 3082 3081 3080 3080 3084 3086 3087 3090 3094 3097 3102 3108 3113 3116 3121 3124 3121 3135 3132 3134 3139 3135 3144 3147 3148 3150 3152 3153 3156
3112 3112 3112 3110 3106 3100 3095 3092 3092 3089 3089 3089 3088 3086 3084 3081 3080 3078 3076 3075 3074 3074 3072 3071 3072 3075 3078 3080 3084 3088 3092 3098 3102 3108 3113 3118 3122 3126 3129 3133 3133 3134 3132 3138 3142 3143 3144 3146 3149
3112 3112 3111 3110 3104 3094 3087 3088 3089 3089 3088 3087 3085 3082 3080 3076 3073 3070 3067 3066 3064 3063 3062 3061 3061 3063 3067 3070 3074 3078 3082 3087 3093 3098 3105 3111 3116 3118 3121 3123 3127 3129 3130 3129 3134 3136 3138 3137 3139
3112 3111 3111 3110 3107 3102 3094 3089 3088 3087 3087 3084 3082 3079 3075 3070 3065 3059 3055 3055 3051 3049 3049 3050 3050 3051 3055 3058 3062 3068 3072 3077 3083 3090 3095 3102 3108 3110 3112 3116 3119 3118 3117 3116 3125 3128 3130 3129 3126
3108 3108 3109 3108 3104 3102 3100 3092 3089 3087 3084 3082 3077 3074 3069 3065 3058 3052 3048 3044 3042 3039 3036 3035 3037 3039 3043 3046 3050 3055 3062 3067 3074 3081 3088 3094 3100 3103 3106 3109 3115 3112 3115 3118 3122 3120 3124 3124 3126